Henderson, KY

10:49 PM CST on November 19, 2019 (GMT -0600)
Henderson City-County

Weather History for KEHR - September, 2019

Change the Weather History Date:

Friday, September 6, 2019

  Actual Average Record
Temperature  
Mean Temperature 74 °F -  
Max Temperature 90 °F 85 °F 101 °F (1954)
Min Temperature 57 °F 61 °F 45 °F (1988)
Cooling Degree Days 8    
Growing Degree Days 24 (Base 50)    
Moisture  
Dew Point 65 °F    
Average Humidity 77    
Maximum Humidity 100    
Minimum Humidity 55    
Precipitation  
Precipitation 0.00 in - - ()
Sea Level Pressure  
Sea Level Pressure 29.97 in    
Wind  
Wind Speed 5 mph (WNW)    
Max Wind Speed 16 mph    
Max Gust Speed 23 mph    
Visibility 10 miles    
Events      
Averages and records for this station are not official NWS values.
T = Trace of Precipitation, MM = Missing Value Source: NWS Daily Summary

Daily Weather History Graph

Daily Weather History Graph

Search for Another Location

Airport or City:

Astronomy

Sep. 06, 2019 Rise Set
Actual Time 6:24 AM CDT 7:12 PM CDT
Civil Twilight 5:58 AM CDT 7:39 PM CDT
Nautical Twilight 5:26 AM CDT 8:10 PM CDT
Astronomical Twilight 4:54 AM CDT 8:43 PM CDT
Moon 2:24 PM CDT (9/6) No Moon Set
Length of Visible Light 13h 41m
Length of Day
12h 47m
First Quarter, 56% of the Moon is Illuminated
Sep 6
First Quarter
Sep 13
Full
Sep 21
Last Quarter
Sep 28
New
Oct 5
First Quarter

Hourly Weather History & Observations

Time (CDT) Temp. Heat Index Dew Point Humidity Pressure Visibility Wind Dir Wind Speed Gust Speed Precip Events Conditions
12:56 AM 60.1 °F - 59.0 °F 96% 30.02 in 10.0 mi Calm Calm - N/A   Clear
1:56 AM 59.0 °F - 59.0 °F 100% 30.02 in 10.0 mi Calm Calm - N/A   Clear
2:56 AM 59.0 °F - 57.9 °F 96% 30.02 in 10.0 mi Calm Calm - N/A   Clear
3:56 AM 57.9 °F - 57.9 °F 100% 30.00 in 10.0 mi Calm Calm - N/A   Clear
4:56 AM 57.9 °F - 57.0 °F 97% 30.00 in 8.0 mi Calm Calm - N/A   Clear
5:56 AM 57.9 °F - 57.0 °F 97% 30.00 in 9.0 mi WSW 3.5 mph - N/A   Clear
6:56 AM 59.0 °F - 57.9 °F 96% 30.01 in 7.0 mi WSW 3.5 mph - N/A   Clear
7:56 AM 64.0 °F - 62.1 °F 93% 30.01 in 10.0 mi SW 3.5 mph - N/A   Mostly Cloudy
8:56 AM 70.0 °F - 63.0 °F 78% 30.00 in 10.0 mi SW 8.1 mph - N/A   Clear
9:56 AM 75.0 °F - 64.0 °F 69% 30.00 in 10.0 mi SW 8.1 mph - N/A   Clear
10:56 AM 79.0 °F - 66.0 °F 64% 29.98 in 10.0 mi SW 5.8 mph - N/A   Clear
11:56 AM 82.9 °F 86.5 °F 69.1 °F 63% 29.95 in 10.0 mi WSW 11.5 mph - N/A   Clear
12:56 PM 86.0 °F 90.7 °F 70.0 °F 59% 29.93 in 10.0 mi WSW 9.2 mph - N/A   Clear
1:56 PM 89.1 °F 96.0 °F 72.0 °F 57% 29.90 in 10.0 mi WSW 10.4 mph - N/A   Clear
2:56 PM 90.0 °F 96.9 °F 72.0 °F 55% 29.88 in 10.0 mi West 10.4 mph - N/A   Clear
3:56 PM 90.0 °F 97.9 °F 73.0 °F 57% 29.88 in 10.0 mi WNW 15.0 mph 18.4 mph N/A   Scattered Clouds
4:56 PM 88.0 °F 96.5 °F 73.9 °F 63% 29.89 in 10.0 mi NNW 11.5 mph 19.6 mph N/A   Mostly Cloudy
5:56 PM 84.0 °F 91.2 °F 73.9 °F 72% 29.90 in 10.0 mi NW 8.1 mph - N/A   Scattered Clouds
6:56 PM 82.0 °F 85.9 °F 70.0 °F 67% 29.91 in 10.0 mi NNW 8.1 mph - N/A   Clear
7:56 PM 78.1 °F - 70.0 °F 76% 29.94 in 10.0 mi NNW 5.8 mph - N/A   Clear
8:56 PM 75.9 °F - 66.9 °F 74% 29.97 in 10.0 mi North 16.1 mph 23.0 mph N/A   Partly Cloudy
9:56 PM 73.0 °F - 64.0 °F 73% 29.99 in 10.0 mi North 8.1 mph - N/A   Clear
10:56 PM 71.1 °F - 63.0 °F 75% 29.99 in 10.0 mi North 8.1 mph - N/A   Clear
11:56 PM 69.1 °F - 60.1 °F 73% 29.99 in 10.0 mi NNE 9.2 mph - N/A   Clear